Weather in Pokrovka

Russia / Altai Krai     52°45′54″N   80°22′58″E
temp.,
°C
wind,
m/s
gust,
m/s
humid.,
%
clouds,
%
prec.,
mm/h
press.,
hPa
HPBL,
m
6 march, sat
sat601:00−6sw10177983 0.0 1023649
04:00−8ssw91781100 0.0 1022543
07:00−9ssw9178051 0.0 1022435
10:00−9ssw10188264 0.0 1020487
13:00−6ssw11198156 0.0 1018677
16:00−3sw10178352 0.0 1016951
19:00−3sw9168676 0.1 1015805
22:00−3sw81591100 0.1 1015594
7 march, sun
sun701:00−3sw81395100 1.1 1015529
04:00−5sw71295100 0.8 1015417
07:00−5sw61195100 1.4 1017382
10:00−4sw5995100 0.6 1018402
13:00−3wsw4795100 1.0 1020497
16:00−2wsw4593100 0.3 1020530
19:00−2wsw2397100 0.4 1021136
22:00−2s3597100 0.1 1021189
8 march, mon
mon801:00−4s4894100 0.1 1020179
04:00−7s499266 0.0 1018179
07:00−8s5128674 0.0 1017223
10:00−6s61385100 0.0 1014314
13:00−4ssw81578100 0.0 1012484
16:00−1sw101780100 0.0 1011800
19:000wsw91597100 0.3 1013943
22:00−5wnw81388100 0.4 1017504
9 march, tue
tue901:00−12wsw499555 0.4 1022143
04:00−15sw479516 0.0 102596
07:00−16sw459226 0.0 102668
10:00−13ssw479152 0.0 1027144
13:00−8ssw468933 0.0 1025266
16:00−6s248813 0.0 1023261
19:00−4se369622 0.0 1020221
22:00−2s399298 0.0 1019370
10 march, wed
wed1001:00−3ssw4119596 0.1 1017289
04:00−4sw489596 0.4 1015163
07:00−3sw389792 0.4 1016315
10:00−4ssw4596100 0.0 1015191
13:00−2sse3593100 0.0 1012269
16:000se48100100 0.0 1009419
19:00+1sse71585100 0.0 1004506
22:00+2s102078100 0.0 1001576